Gulkana, AK

5:05 AM AKDT on March 24, 2017 (GMT -0800)
Gulkana

Weather History for PAGK - May, 2014

Change the Weather History Date:

Monday, May 26, 2014

  Actual Average Record
Temperature  
Mean Temperature 50 °F -  
Max Temperature 66 °F 60 °F 75 °F (2006)
Min Temperature 33 °F 37 °F 25 °F (2001)
Degree Days  
Heating Degree Days 16    
Moisture  
Dew Point 33 °F    
Average Humidity 49    
Maximum Humidity 92    
Minimum Humidity 16    
Precipitation  
Precipitation 0.00 in - - ()
Sea Level Pressure  
Sea Level Pressure 29.98 in    
Wind  
Wind Speed 5 mph (SSE)    
Max Wind Speed 14 mph    
Max Gust Speed -    
Visibility 7 miles    
Events      
Averages and records for this station are not official NWS values.
T = Trace of Precipitation, MM = Missing Value Source: NWS Daily Summary

Daily Weather History Graph

Daily Weather History Graph

Search for Another Location

Airport or City:

Trip Planner

Search our weather history database for the weather conditions in past years. The results will help you decide how hot, cold, wet, or windy it might be!

Date:

Astronomy

May. 26, 2014 Rise Set
Actual Time 4:18 AM AKDT 11:00 PM AKDT
Civil Twilight 2:33 AM AKDT 12:51 AM AKDT
Nautical Twilight Sun does not rise Sun does not rise
Astronomical Twilight Sun does not rise Sun does not rise
Moon 4:04 AM AKDT (5/26) 8:26 PM AKDT (5/26)
Length of Visible Light 22h 17m
Length of Day
18h 41m
Waning Crescent, 4% of the Moon is Illuminated
May 26
Waning Crescent
May 28
New
Jun 5
First Quarter
Jun 12
Full
Jun 19
Last Quarter

Hourly Weather History & Observations

Time (AKDT) Temp. Windchill Dew Point Humidity Pressure Visibility Wind Dir Wind Speed Gust Speed Precip Events Conditions
1:53 AM 44.1 °F 41.5 °F 36.0 °F 73% 29.96 in 5.0 mi SSE 4.6 mph - N/A   Haze
2:53 AM 41.0 °F 38.0 °F 35.1 °F 79% 29.98 in 5.0 mi ESE 4.6 mph - N/A   Haze
4:53 AM 33.1 °F - 30.9 °F 92% 30.01 in 5.0 mi Calm Calm - N/A   Clear
5:53 AM 35.1 °F - 32.0 °F 89% 30.03 in 5.0 mi Calm Calm - N/A   Clear
6:53 AM 41.0 °F 39.0 °F 36.0 °F 82% 30.02 in 6.0 mi South 3.5 mph - N/A   Haze
7:53 AM 43.0 °F 40.3 °F 36.0 °F 76% 30.03 in 6.0 mi South 4.6 mph - N/A   Haze
8:53 AM 46.0 °F 43.1 °F 36.0 °F 68% 30.03 in 8.0 mi SE 5.8 mph - N/A   Clear
9:53 AM 48.9 °F - 36.0 °F 61% 30.02 in 8.0 mi Variable 3.5 mph - N/A   Clear
11:53 AM 59.0 °F - 35.1 °F 41% 30.01 in 10.0 mi Variable 3.5 mph - N/A   Clear
12:53 PM 61.0 °F - 34.0 °F 36% 30.00 in 9.0 mi ENE 5.8 mph - N/A   Clear
1:53 PM 61.0 °F - 32.0 °F 34% 29.99 in 9.0 mi Calm Calm - N/A   Partly Cloudy
2:53 PM 63.0 °F - 28.9 °F 28% 29.98 in 10.0 mi South 9.2 mph - N/A   Partly Cloudy
3:53 PM 64.0 °F - 28.9 °F 27% 29.97 in 10.0 mi North - - N/A   Clear
4:53 PM 64.0 °F - 30.0 °F 28% 29.96 in 8.0 mi SSE 3.5 mph - N/A   Clear
5:53 PM 64.9 °F - 30.9 °F 28% 29.94 in 8.0 mi South 6.9 mph - N/A   Clear
6:53 PM 64.9 °F - 30.9 °F 28% 29.92 in 7.0 mi South 12.7 mph - N/A   Clear
7:53 PM 63.0 °F - 30.0 °F 29% 29.93 in 6.0 mi SSE 13.8 mph - N/A   Haze
8:53 PM 62.1 °F - 30.0 °F 30% 29.92 in 7.0 mi South 9.2 mph - N/A   Clear
9:53 PM 57.9 °F - 28.9 °F 33% 29.94 in 8.0 mi South 12.7 mph - N/A   Clear
10:53 PM 54.0 °F - 33.1 °F 45% 29.96 in 8.0 mi SSE 12.7 mph - N/A   Clear
11:53 PM 51.1 °F - 35.1 °F 54% 29.97 in 8.0 mi SSE 10.4 mph - N/A   Clear